Погода в Зилаире

Погода в Зилаире : погода сейчас, прогноз погоды и архив. Всё, что Вы хотите узнать о погоде в Зилаире!

Поиск расширенной информации на нашем сайте:

Другие новости

Новости СМИ2

Главная страница сайта

Новости сайта

03.07.2017

Напоминаем, что на нашем специализированном сайте Метеоцентр.Азия вы можете получить высокодетализированные автоматические прогнозы погоды по пунктам России, СНГ и мира в авиационном формате (включающие направление и скорость ветра, видимость, явления погоды, количество и форму облачности, нижнюю и верхнюю границу облачности).


Погода в Зилаире - сегодня

Время (UTC), дата Ветер
(°,м/с) 
Видим.   Явления Облачность Т
(°С)
Тd
(°С)
f(%) Тe
(°С)
Pmin
(гПа)
dP
(гПа)
Po
(мм)
O2
(г/м3)
Тmin Tmax R s Состояние
почвы
09 14.08.18 210 (ЮЗ) 10 км    10/10 600 м 
[Sc]
+20.6 +14.8 69 +30  1010.8  -0.6  714  264           
12 14.08.18 тихо ()   10 км  в посл. час гроза{ливн. осадки}  10/10 600 м кучево-дожд. 
[Cb calv]
+17.5 +15.7 89 +29  1009.8  -1.5  713  267           
15 14.08.18 150 (ЮВ) 1{11}  4000 м  в посл. час гроза{ливн. осадки}  10/10 600 м кучево-дожд. 
[Cb calv]
+14.6 +13.9 96 +24  1010.5  713  270    +22.3  31     
18 14.08.18 320 (СЗ) 4000 м  дымка{гроза, ливн. осадки}  10/10 600 м кучево-дожд. 
[Cb cap]
+14.4 +13.8 96 +24  1011.5  0.9  714  270           
21 14.08.18 тихо ()   4000 м  дымка{ливн. осадки}  10/10 600 м кучево-дожд. 
[Cb cap]
+13.9 +13.3 96 +21  1010.6  -1  713  271           
00 15.08.18 330 (СЗ) 2000 м  дымка{ливн. осадки}  10/10 600 м кучево-дожд. 
[Cb cap]
+13.9 +13.2 96 +21  1010.6  0.7  713  271           
03 15.08.18 350 (С) 4000 м  дымка  4/4 600 м 
[Cu hum]
+13.5 +11.5 88 +17  1012.7  1.2  714  272  +13.1      мокрая 
06 15.08.18 360 (С) 4{11}  20000 м    4/4 600 м 
[Cu hum]
+17.4 +9.3 59 +19  1012.9  1.1  715  269           
09 15.08.18 350 (С) 5-10{10}  20000 м    6/6 600 м 
[Cu med, cong]
+18.9 +7.9 49 +19  1013.5  0.8  716  268           
12 15.08.18 320 (СЗ) 5{11}  20000 м    6/6 600 м 
[Cu med, cong]
+20.8 +4.3 34 +21  1013.9  0.7  716  267           
18 15.08.18 тихо ()   10 км    ясно 
+11.4 +7.3 76 +11  1018.5  1.2  718  276           
21 15.08.18 030 (СВ) 4000 м  дымка  ясно 
+8 +6.8 92 +9  1019.2  718  280           
00 16.08.18 020 (С) 4000 м  дымка  ясно 
+5.7 +4.8 94 +7  1020.9  719  283           
03 16.08.18 020 (С) 10 км    ясно 
+8.3 +6.2 87 +9  1021.1  0.8  719  280  +5.2        влажная 
06 16.08.18 330 (СЗ) 20000 м    3/3 600 м 
[Cu hum]
+19.4 +7.5 46 +20  1018.8  0.1  719  269           
09 16.08.18 350 (С) 20000 м    3/3 600 м 
[Cu hum]
+22.4 +5.3 33 +22  1017.5  -0.7  719  267           
12 16.08.18 310 (СЗ) 20000 м    ясно 
+23.4 +5.8 32 +23  1016.5  -0.7  718  266           
15 16.08.18 290 (З) 20000 м    ясно 
+21.8 +6.8 38 +22  1016.6  -0.2  718  267    +23.7       
18 16.08.18 170 (Ю) 10 км    ясно 
+13.4 +9 75 +16  1018.2  -0.1  718  274           
21 16.08.18 тихо ()   10 км    ясно 
+10.1 +8.2 88 +10  1018.3  -0.6  718  277           
00 17.08.18 тихо ()   4000 м  дымка  ясно 
+8 +6.9 93 +8  1018.3  -0.5  717  280           
03 17.08.18 200 (Ю) 10 км    ясно 
+13.5 +8.7 73 +15  1016.8  -0.2  717  274  +7.8        сухая 
06 17.08.18 240 (ЮЗ) 20000 м    8/3 600 м верхняя 
[Cu med, cong|Ci fib]
+24.1 +4.9 29 +24  1013.8  -0.8  717  264           
09 17.08.18 310 (СЗ) 20000 м    8/3 1000 м верхняя 
[Cu med, cong|Ci sp]
+26.3 +8.3 32 +26  1012.2  -1.1  716  262           
18 17.08.18 тихо ()   4000 м  дымка{ливн. осадки}  8/8 600 м кучево-дожд. 
[Cb calv]
+15.6 +14.3 92 +24  1013.8  0.3  715  270           
Время (UTC), дата Ветер
(°,м/с) 
Видим.   Явления Облачность Т
(°С)
Тd
(°С)
f(%) Тe
(°С)
Pmin
(гПа)
dP
(гПа)
Po
(мм)
O2
(г/м3)
Тmin Tmax R s Состояние
почвы

Для получения пояснительной информации подведите курсор к названию столбца.

ПОГОДА в Зилаире - архив

Всё, что Вы хотите узнать о погоде в Зилаире - удобно и подробно!

Выберите нужную дату (начиная с 1 января 2015* года) и нажмите кнопку "Найти".
Будут отображены архивные сводки погоды по пункту Зилаир, начиная с указанной даты.


Отображать данные в формате CSV (для использования в таблицах Excel)


Внимание! Наш архив погоды предназначен исключительно для личного некоммерческого использования в познавательных целях. Если Вам необходимы официальные справки о состоянии погоды (для производственных, юридических, коммерческих и т.п. целей), обращайтесь в органы Росгидромета.

*Примечание: данная дата относится к архиву по метеостанциям СССР (Россия, СНГ, Балтия).
Архив по метеостанциям Зарубежной Европы и Азии (кроме Китая) хранится 10 дней, по другим регионам земного шара (Китай, Африка, Америка, Австралия, Океания) - 1 день.

Зилаир - район местоположения метеостанции


Название, широта, долгота, высота метеостанции:
Зилаир 52.2°ш. 57.4°д. 521 м над ур. моря [Российская Федерация]

Дополнительная информация

В oтличие oт бoльшинства пoгoдных сайтoв мы публикуем пoдрoбную метеoинфoрмацию в детальнoм прoфессиoнальнoм фoрмате.

Характеристики температуры и влажнoсти вoздуха измеряются на высoте 2 м в тени вдали oт зданий и деревьев.
Скoрoсть ветра измеряется на высoте 10 м (на урoвне рoста челoвека скoрoсть ветра ниже в 1.5-2 раза). Если метеoстанция нахoдится в гoрoде или в лесу, тo скoрoсть ветра занижена на 2-4 м/с пo сравнению с oткрытым местoм. Скoрoсть ветра над акватoриями крупных рек и oзёр, а также на вершинах хoлмoв на 2-5 м/с выше, чем в oбычных услoвиях.
Атмoсфернoе давление в разных тoчках местнoсти мoжет значительнo oтличаться oт давления на метеoстанции, в зависимoсти oт услoвий рельефа (при пoдъёме на 10 м давление пoнижается примернo на 1 мм рт.ст.).